TimeCDT,TemperatureF,Dew PointF,Humidity,Sea Level PressureIn,VisibilityMPH,Wind Direction,Wind SpeedMPH,Gust SpeedMPH,PrecipitationIn,Events,Conditions,WindDirDegrees,DateUTC
12:15 AM,77.0,73.4,89,29.97,10.0,Calm,Calm,-,N/A,,Unknown,0,2013-09-08 05:15:00
12:35 AM,77.0,73.4,89,29.96,10.0,Calm,Calm,-,N/A,,Unknown,0,2013-09-08 05:35:00
12:55 AM,77.0,73.4,89,29.96,10.0,Calm,Calm,-,N/A,,Unknown,0,2013-09-08 05:55:00
1:15 AM,77.0,73.4,89,29.96,10.0,Calm,Calm,-,N/A,,Unknown,0,2013-09-08 06:15:00
1:35 AM,73.4,73.4,100,29.96,10.0,Calm,Calm,-,N/A,,Unknown,0,2013-09-08 06:35:00
1:55 AM,73.4,71.6,94,29.96,10.0,Calm,Calm,-,N/A,,Unknown,0,2013-09-08 06:55:00
2:15 AM,73.4,71.6,94,29.95,10.0,Calm,Calm,-,N/A,,Unknown,0,2013-09-08 07:15:00
2:35 AM,71.6,69.8,94,29.95,7.0,Calm,Calm,-,N/A,,Unknown,0,2013-09-08 07:35:00
2:55 AM,71.6,71.6,100,29.95,10.0,Calm,Calm,-,N/A,,Unknown,0,2013-09-08 07:55:00
3:15 AM,71.6,71.6,100,29.95,10.0,Calm,Calm,-,N/A,,Unknown,0,2013-09-08 08:15:00
3:35 AM,71.6,69.8,94,29.95,10.0,Calm,Calm,-,N/A,,Unknown,0,2013-09-08 08:35:00
3:55 AM,73.4,71.6,94,29.95,10.0,SSW,3.5,-,N/A,,Unknown,210,2013-09-08 08:55:00
4:15 AM,71.6,69.8,94,29.95,10.0,South,3.5,-,N/A,,Unknown,190,2013-09-08 09:15:00
4:35 AM,71.6,69.8,94,29.95,10.0,SSW,3.5,-,N/A,,Unknown,200,2013-09-08 09:35:00
4:55 AM,71.6,69.8,94,29.96,10.0,South,4.6,-,N/A,,Unknown,180,2013-09-08 09:55:00
5:15 AM,71.6,69.8,94,29.97,10.0,South,3.5,-,N/A,,Unknown,180,2013-09-08 10:15:00
5:35 AM,71.6,69.8,94,29.97,10.0,Calm,Calm,-,N/A,,Unknown,0,2013-09-08 10:35:00
5:55 AM,71.6,69.8,94,29.97,10.0,Calm,Calm,-,N/A,,Unknown,0,2013-09-08 10:55:00
6:15 AM,71.6,69.8,94,29.98,7.0,Calm,Calm,-,N/A,,Unknown,0,2013-09-08 11:15:00
6:35 AM,71.6,69.8,94,29.98,7.0,Calm,Calm,-,N/A,,Unknown,0,2013-09-08 11:35:00
6:55 AM,71.6,69.8,94,29.98,7.0,Calm,Calm,-,N/A,,Unknown,0,2013-09-08 11:55:00
7:15 AM,71.6,69.8,94,29.98,5.0,Calm,Calm,-,N/A,,Mist,0,2013-09-08 12:15:00
7:35 AM,71.6,71.6,100,29.99,4.0,Calm,Calm,-,N/A,,Mist,0,2013-09-08 12:35:00
7:55 AM,71.6,71.6,100,29.99,4.0,Calm,Calm,-,N/A,,Mist,0,2013-09-08 12:55:00
8:15 AM,73.4,71.6,94,29.99,7.0,Calm,Calm,-,N/A,,Unknown,0,2013-09-08 13:15:00
8:35 AM,77.0,71.6,83,29.99,10.0,Calm,Calm,-,N/A,,Unknown,0,2013-09-08 13:35:00
8:55 AM,78.8,73.4,83,30.00,10.0,Calm,Calm,-,N/A,,Unknown,0,2013-09-08 13:55:00
9:15 AM,80.6,73.4,79,30.00,10.0,Calm,Calm,-,N/A,,Unknown,0,2013-09-08 14:15:00
9:35 AM,82.4,71.6,70,30.00,10.0,Calm,Calm,-,N/A,,Unknown,0,2013-09-08 14:35:00
9:55 AM,84.2,71.6,66,30.00,10.0,South,3.5,-,N/A,,Unknown,180,2013-09-08 14:55:00
10:15 AM,86.0,71.6,62,30.01,10.0,SSW,3.5,-,N/A,,Unknown,200,2013-09-08 15:15:00
10:35 AM,87.8,71.6,58,30.01,10.0,SSW,5.8,-,N/A,,Unknown,200,2013-09-08 15:35:00
10:55 AM,89.6,73.4,59,30.01,10.0,South,5.8,-,N/A,,Unknown,190,2013-09-08 15:55:00
11:15 AM,91.4,73.4,55,30.01,10.0,SW,6.9,-,N/A,,Unknown,220,2013-09-08 16:15:00
11:35 AM,91.4,73.4,55,30.00,10.0,SSW,5.8,-,N/A,,Unknown,210,2013-09-08 16:35:00
11:55 AM,91.4,71.6,52,30.00,10.0,SSW,8.1,-,N/A,,Unknown,200,2013-09-08 16:55:00
12:15 PM,91.4,71.6,52,30.00,10.0,SSW,3.5,-,N/A,,Unknown,210,2013-09-08 17:15:00
12:35 PM,93.2,71.6,49,29.99,10.0,SW,3.5,-,N/A,,Unknown,230,2013-09-08 17:35:00
12:55 PM,95.0,71.6,47,29.98,10.0,South,5.8,-,N/A,,Unknown,180,2013-09-08 17:55:00
1:15 PM,96.8,73.4,47,29.98,10.0,SSW,4.6,-,N/A,,Unknown,200,2013-09-08 18:15:00
1:35 PM,96.8,71.6,44,29.97,10.0,South,5.8,-,N/A,,Unknown,180,2013-09-08 18:35:00
1:55 PM,96.8,71.6,44,29.96,10.0,South,3.5,-,N/A,,Unknown,180,2013-09-08 18:55:00
2:15 PM,96.8,71.6,44,29.96,10.0,ENE,3.5,-,N/A,,Unknown,60,2013-09-08 19:15:00
2:35 PM,96.8,69.8,41,29.95,10.0,South,3.5,-,N/A,,Unknown,170,2013-09-08 19:35:00
2:55 PM,96.8,69.8,41,29.94,10.0,SSE,4.6,-,N/A,,Unknown,160,2013-09-08 19:55:00
3:15 PM,96.8,69.8,41,29.93,10.0,Calm,Calm,-,N/A,,Unknown,0,2013-09-08 20:15:00
3:35 PM,96.8,69.8,41,29.93,10.0,SW,3.5,-,N/A,,Unknown,230,2013-09-08 20:35:00
3:55 PM,96.8,69.8,41,29.92,10.0,SSW,5.8,-,N/A,,Unknown,200,2013-09-08 20:55:00
4:15 PM,96.8,69.8,41,29.91,10.0,South,8.1,-,N/A,,Unknown,170,2013-09-08 21:15:00
4:35 PM,96.8,68.0,39,29.90,10.0,South,4.6,-,N/A,,Unknown,170,2013-09-08 21:35:00
4:55 PM,96.8,69.8,41,29.90,10.0,Calm,Calm,-,N/A,,Unknown,0,2013-09-08 21:55:00
5:15 PM,96.8,69.8,41,29.90,10.0,ENE,4.6,-,N/A,,Unknown,70,2013-09-08 22:15:00
5:35 PM,96.8,71.6,44,29.89,10.0,Calm,Calm,-,N/A,,Unknown,0,2013-09-08 22:35:00
5:55 PM,96.8,71.6,44,29.89,10.0,Calm,Calm,-,N/A,,Unknown,0,2013-09-08 22:55:00
6:15 PM,96.8,73.4,47,29.89,10.0,Calm,Calm,-,N/A,,Unknown,0,2013-09-08 23:15:00
6:35 PM,95.0,71.6,47,29.89,10.0,Calm,Calm,-,N/A,,Unknown,0,2013-09-08 23:35:00
6:55 PM,91.4,73.4,55,29.89,10.0,Calm,Calm,-,N/A,,Unknown,0,2013-09-08 23:55:00
7:15 PM,86.0,78.8,79,29.89,10.0,Calm,Calm,-,N/A,,Unknown,0,2013-09-09 00:15:00
7:35 PM,84.2,75.2,74,29.89,10.0,Calm,Calm,-,N/A,,Unknown,0,2013-09-09 00:35:00
7:55 PM,82.4,75.2,79,29.89,10.0,Calm,Calm,-,N/A,,Unknown,0,2013-09-09 00:55:00
8:15 PM,80.6,75.2,84,29.90,10.0,Calm,Calm,-,N/A,,Unknown,0,2013-09-09 01:15:00
8:35 PM,80.6,77.0,89,29.90,10.0,Calm,Calm,-,N/A,,Unknown,0,2013-09-09 01:35:00
8:55 PM,78.8,75.2,89,29.91,10.0,Calm,Calm,-,N/A,,Unknown,0,2013-09-09 01:55:00
9:15 PM,78.8,75.2,89,29.92,10.0,Calm,Calm,-,N/A,,Unknown,0,2013-09-09 02:15:00
9:35 PM,78.8,73.4,83,29.93,10.0,Calm,Calm,-,N/A,,Unknown,0,2013-09-09 02:35:00
9:55 PM,77.0,73.4,89,29.93,10.0,Calm,Calm,-,N/A,,Unknown,0,2013-09-09 02:55:00
10:15 PM,77.0,73.4,89,29.94,10.0,Calm,Calm,-,N/A,,Unknown,0,2013-09-09 03:15:00
10:35 PM,77.0,73.4,89,29.94,10.0,Calm,Calm,-,N/A,,Unknown,0,2013-09-09 03:35:00
10:55 PM,77.0,73.4,89,29.95,10.0,Calm,Calm,-,N/A,,Unknown,0,2013-09-09 03:55:00
11:15 PM,77.0,73.4,89,29.95,10.0,Calm,Calm,-,N/A,,Unknown,0,2013-09-09 04:15:00
11:35 PM,77.0,73.4,89,29.95,10.0,Calm,Calm,-,N/A,,Unknown,0,2013-09-09 04:35:00
11:55 PM,77.0,75.2,94,29.95,10.0,Calm,Calm,-,N/A,,Unknown,0,2013-09-09 04:55:00